Wind_Speed
21 21 21 22 23 23 22 22 21 20 20 19 19 19 18 18 18 18 17 17 16 16 17 19 20 20 21 21 22 22 21 21 20 20 20 21 21 22 22 21 21 21
21 20 20 20 22 22 23 23 22 21 21 20 19 19 19 19 19 19 18 17 16 16 17 17 18 18 19 19 20 20 20 20 19 19 19 20 20 21 21 21 20 20
20 20 20 20 21 22 22 22 21 21 20 20 20 19 19 19 19 19 19 18 18 17 17 17 18 18 18 18 18 18 18 18 18 18 18 19 19 20 20 20 20 19
21 21 22 22 21 20 20 20 20 20 20 20 20 20 20 20 20 20 20 20 19 19 19 19 18 18 18 18 18 18 18 17 17 17 18 18 19 19 20 20 19 19
23 23 23 23 22 20 21 21 21 21 22 22 22 22 22 21 22 22 21 21 21 20 20 20 20 20 20 19 19 18 18 18 18 18 17 18 18 19 19 20 20 19
25 25 25 24 23 23 24 24 24 23 22 22 22 22 21 21 21 21 21 21 21 21 21 21 22 21 21 21 20 20 20 20 20 20 20 19 19 19 20 20 20 20
26 27 26 26 25 25 25 26 26 25 24 23 22 22 22 21 21 21 21 21 21 20 20 20 20 21 21 21 20 20 20 20 21 21 22 22 22 22 22 22 22 22
28 28 27 27 26 26 26 26 26 26 24 25 26 26 25 25 24 23 23 22 22 22 22 21 20 20 21 22 22 22 21 21 22 22 22 23 23 23 23 24 24 25
29 29 28 27 26 28 28 26 26 26 25 26 26 26 26 27 28 27 26 25 24 24 25 24 23 23 23 23 23 23 23 23 24 24 25 25 25 24 24 24 25 26
30 31 31 29 28 31 31 29 29 30 29 28 27 27 27 28 28 28 29 28 27 26 26 26 24 24 23 23 23 23 23 23 24 25 26 27 27 27 26 26 26 27
32 33 34 33 32 32 33 32 31 32 32 32 32 32 32 30 28 27 28 29 30 28 27 26 25 25 25 24 24 25 24 24 25 26 27 28 28 28 28 29 29 29
36 37 36 35 33 33 35 35 34 34 34 33 34 33 33 32 31 29 28 28 29 29 29 29 29 28 28 28 28 28 28 27 28 29 29 30 31 31 31 31 31 32
39 40 38 36 35 37 38 38 38 38 36 35 36 36 35 36 35 34 32 30 30 30 30 31 33 32 32 32 32 34 34 33 34 34 34 34 34 34 33 33 33 34
40 40 41 41 40 40 41 41 42 42 41 40 41 39 37 37 39 40 38 34 33 34 33 34 34 34 36 36 35 36 37 38 38 37 37 36 36 36 35 35 36 36
45 42 43 45 44 42 42 43 45 47 47 45 44 41 37 36 38 41 40 37 37 37 38 39 37 35 37 39 38 39 40 39 38 38 38 38 38 38 37 36 37 38
50 48 46 46 46 45 44 44 44 45 44 42 43 43 42 42 41 41 43 42 41 39 40 41 39 37 38 40 41 42 43 41 40 39 40 40 40 40 40 40 40 40
52 52 51 51 50 50 49 49 48 47 44 41 41 42 44 44 43 43 45 46 45 44 44 44 43 42 41 41 43 46 46 44 42 42 42 43 44 43 42 41 40 40
53 53 53 54 55 55 55 56 56 55 54 51 47 45 44 44 44 45 47 48 48 48 49 49 47 44 43 43 45 48 47 45 45 45 44 46 46 44 43 43 42 42
54 55 55 56 56 56 57 58 58 58 57 55 52 49 47 46 45 45 47 48 49 50 51 51 49 47 47 48 49 49 48 48 48 47 46 47 49 49 49 49 48 48
52 52 53 53 53 53 53 54 55 55 54 53 52 51 50 50 49 49 50 50 51 52 52 51 51 51 52 52 52 52 51 50 51 51 51 51 51 51 50 48 47 48
56 55 54 53 53 53 52 52 53 54 55 55 55 55 55 55 55 55 55 55 56 56 55 55 56 57 56 56 56 55 54 54 55 54 52 51 51 51 51 49 49 50
60 59 58 58 58 57 56 56 56 57 58 59 59 59 60 60 59 59 60 60 60 60 60 59 60 60 60 60 59 57 56 56 56 54 54 54 54 55 54 52 51 51
57 57 57 57 57 58 58 58 59 59 59 60 61 61 61 61 62 62 62 62 62 62 61 60 60 61 60 59 58 57 56 56 56 56 56 56 55 55 55 54 53 53
56 56 56 56 56 56 56 57 57 57 58 58 59 59 59 60 60 61 61 60 59 59 58 58 58 58 57 56 56 56 55 55 55 55 55 55 56 56 56 55 55 54
55 56 56 56 56 55 56 56 56 56 56 56 56 56 56 57 58 59 58 56 55 55 56 56 56 56 55 55 55 54 54 54 55 55 55 56 57 57 57 56 56 56
55 55 55 55 55 55 55 56 56 56 55 55 55 55 55 55 56 57 55 53 52 53 54 54 54 54 54 54 54 54 54 54 54 54 54 55 55 56 56 56 56 56
Wind_Direction
279 277 274 271 269 267 265 263 262 262 262 263 264 265 265 265 265 265 265 266 268 270 272 274 274 276 277 278 279 280 280 280 277 274 271 269 266 265 265 264 263 262
276 274 271 268 267 266 265 264 263 263 263 263 263 265 265 265 265 265 265 266 268 269 271 271 271 272 273 275 277 279 280 281 279 276 272 270 268 266 265 265 262 261
270 268 267 267 266 264 263 263 262 263 263 263 263 263 263 264 264 264 265 266 268 270 272 272 273 272 272 272 273 275 276 277 276 275 273 270 268 267 267 267 266 263
267 267 269 267 262 260 258 258 260 262 264 265 265 265 264 263 264 264 264 264 266 268 270 271 273 274 275 275 275 276 276 276 275 273 272 270 268 267 268 269 270 269
268 268 268 263 257 256 257 260 262 264 266 268 269 269 269 267 266 264 263 263 263 264 266 268 269 270 271 272 274 275 276 278 278 277 275 272 269 267 267 267 269 270
266 266 264 260 258 260 261 262 263 265 267 268 270 271 271 270 270 268 267 264 263 262 263 266 267 268 268 268 268 270 272 274 276 277 278 277 275 272 269 267 267 266
263 263 262 260 258 260 263 264 264 265 263 264 266 267 268 270 271 272 271 270 268 265 262 261 263 265 267 267 266 266 268 270 273 275 276 276 277 276 274 272 269 267
261 262 262 260 257 258 262 264 265 265 263 265 265 262 262 265 266 268 269 268 267 265 263 261 261 263 267 270 272 272 272 272 273 274 275 275 275 276 275 274 272 270
259 262 261 259 258 261 263 262 262 263 266 270 269 265 264 264 262 262 263 263 261 261 262 263 264 266 270 273 276 279 280 280 279 278 277 276 276 275 275 273 271 270
258 260 261 260 261 264 264 262 260 260 263 267 267 269 271 268 265 261 259 259 258 258 260 261 262 266 269 271 273 276 280 283 283 283 282 280 279 278 276 275 273 270
258 258 261 262 261 261 262 263 260 260 264 267 269 271 270 268 268 265 260 257 257 258 261 260 259 260 261 264 267 269 273 277 280 284 285 285 285 283 282 280 278 276
261 257 257 259 260 260 261 261 259 259 263 268 269 269 266 265 267 267 265 263 261 259 260 259 258 258 259 261 264 267 269 272 276 280 282 284 285 286 286 284 282 280
261 257 253 256 261 262 261 262 261 259 260 265 265 264 263 263 264 266 268 270 266 260 258 260 261 262 264 265 268 271 271 274 278 279 280 281 282 284 285 284 283 282
259 258 257 258 261 262 262 262 261 258 260 265 264 260 260 261 262 264 267 269 270 266 262 262 263 265 268 270 272 276 277 278 280 281 280 280 280 281 282 283 283 282
257 258 260 259 259 259 260 260 260 260 261 263 259 255 257 262 264 266 266 267 270 271 267 265 265 267 269 271 274 277 278 279 281 281 282 282 282 280 280 283 284 282
256 255 256 257 256 255 255 255 257 259 259 255 252 252 257 262 265 268 268 268 269 271 270 269 268 268 270 272 274 275 276 278 279 281 282 283 283 282 280 281 283 282
258 257 256 256 256 256 257 257 259 261 259 257 256 257 259 261 263 266 269 269 269 270 271 271 271 271 273 274 275 275 276 278 280 282 283 283 283 282 280 281 282 281
257 258 257 258 257 258 258 259 261 262 262 263 263 263 262 263 265 266 268 269 270 271 271 272 272 274 275 275 275 276 278 280 282 283 283 282 281 281 281 283 283 281
254 256 257 258 259 260 260 261 262 264 265 265 264 263 263 264 266 267 268 269 270 270 271 271 272 273 274 276 277 277 279 280 282 282 281 281 281 281 283 284 284 283
252 253 254 255 257 258 260 260 261 263 265 266 265 264 264 265 267 267 268 268 268 268 268 269 271 272 273 275 277 278 279 279 280 281 281 281 281 282 283 285 285 285
255 256 256 256 256 258 259 260 260 262 265 266 267 267 266 267 267 268 268 268 268 268 269 270 272 272 273 275 277 278 279 279 279 280 280 280 281 283 283 283 284 284
258 259 259 259 260 261 261 262 263 264 265 266 267 268 269 269 269 269 269 270 270 270 271 272 274 274 274 275 276 277 278 279 279 278 277 279 281 283 282 282 283 283
259 259 260 260 260 261 262 263 263 263 264 265 266 268 269 270 270 270 271 271 272 272 273 274 274 275 275 276 276 276 277 277 277 277 278 279 280 281 282 282 282 282
259 260 260 260 260 261 261 262 263 263 264 265 266 267 269 270 270 271 272 273 274 274 275 275 275 276 276 276 276 276 276 276 277 277 278 278 279 280 281 281 281 281
258 258 259 259 260 261 261 262 263 264 264 265 266 267 269 270 270 271 272 273 274 274 274 274 275 275 275 275 275 275 274 275 275 275 276 277 278 279 280 280 280 279
259 259 259 259 259 259 260 261 262 263 264 265 265 266 267 268 269 270 271 272 271 271 272 272 273 273 273 273 272 272 272 272 273 274 274 275 276 277 278 279 279 279
Height
5733 5733 5733 5734 5734 5735 5735 5736 5736 5736 5737 5737 5737 5737 5737 5737 5737 5738 5738 5738 5739 5739 5739 5739 5738 5738 5738 5738 5739 5739 5740 5740 5741 5741 5742 5742 5742 5742 5742 5742 5742 5743
5731 5731 5731 5731 5732 5732 5733 5733 5734 5734 5734 5734 5735 5735 5735 5735 5735 5735 5736 5736 5736 5737 5737 5737 5737 5737 5737 5737 5737 5737 5738 5738 5739 5739 5740 5740 5740 5741 5741 5741 5741 5741
5729 5729 5729 5729 5730 5730 5730 5731 5731 5731 5731 5732 5732 5732 5732 5733 5733 5733 5733 5734 5734 5735 5735 5735 5735 5735 5735 5736 5736 5736 5736 5736 5737 5737 5738 5738 5739 5739 5739 5739 5740 5740
5726 5727 5727 5727 5727 5728 5728 5728 5728 5728 5729 5729 5730 5730 5731 5731 5731 5731 5731 5732 5732 5732 5733 5733 5733 5733 5734 5734 5734 5734 5734 5735 5735 5735 5736 5736 5737 5737 5738 5738 5738 5739
5724 5724 5724 5725 5725 5725 5725 5726 5726 5726 5726 5727 5727 5728 5728 5729 5729 5729 5729 5729 5730 5730 5730 5731 5731 5731 5731 5732 5732 5732 5733 5733 5733 5733 5734 5734 5735 5735 5736 5736 5736 5737
5720 5721 5721 5722 5723 5723 5723 5723 5723 5723 5724 5724 5725 5725 5726 5726 5727 5727 5727 5727 5727 5728 5728 5728 5728 5729 5729 5729 5730 5730 5730 5730 5731 5731 5731 5732 5733 5733 5734 5734 5734 5735
5717 5717 5718 5718 5720 5720 5720 5720 5720 5720 5721 5721 5722 5723 5723 5724 5724 5725 5725 5725 5725 5725 5725 5726 5726 5726 5726 5726 5727 5727 5728 5728 5728 5728 5729 5729 5730 5730 5731 5732 5732 5732
5713 5714 5714 5715 5716 5717 5718 5718 5718 5717 5718 5719 5720 5720 5720 5721 5721 5722 5723 5723 5723 5723 5723 5723 5724 5724 5724 5724 5724 5725 5725 5726 5726 5726 5726 5726 5727 5727 5728 5728 5729 5729
5710 5711 5711 5712 5713 5713 5714 5716 5716 5715 5715 5716 5717 5717 5717 5718 5718 5718 5719 5719 5720 5720 5720 5720 5721 5721 5721 5721 5722 5722 5722 5723 5723 5723 5723 5723 5724 5725 5725 5725 5725 5726
5707 5707 5707 5709 5710 5710 5710 5712 5712 5712 5712 5712 5713 5714 5715 5715 5715 5715 5715 5715 5716 5717 5717 5717 5718 5719 5719 5719 5718 5719 5719 5719 5719 5719 5720 5720 5721 5721 5722 5722 5722 5722
5703 5703 5704 5705 5706 5706 5706 5707 5708 5708 5708 5708 5709 5710 5711 5711 5711 5712 5712 5712 5713 5714 5714 5715 5715 5715 5715 5715 5715 5715 5715 5715 5716 5716 5716 5716 5717 5717 5718 5718 5719 5719
5698 5699 5700 5701 5701 5702 5703 5704 5704 5704 5705 5705 5705 5706 5706 5707 5707 5707 5708 5709 5710 5710 5711 5711 5711 5711 5711 5711 5711 5711 5711 5712 5712 5712 5713 5713 5713 5713 5714 5714 5714 5715
5694 5695 5696 5697 5697 5698 5698 5699 5700 5700 5700 5701 5701 5701 5702 5703 5703 5703 5704 5705 5705 5706 5706 5706 5707 5707 5707 5707 5707 5707 5707 5708 5708 5709 5709 5709 5709 5709 5710 5710 5710 5710
5690 5691 5692 5692 5693 5693 5693 5694 5695 5695 5696 5696 5697 5697 5698 5698 5699 5698 5699 5701 5700 5700 5701 5702 5703 5703 5703 5703 5703 5702 5702 5703 5704 5704 5705 5705 5706 5706 5706 5706 5706 5706
5685 5686 5687 5687 5688 5689 5689 5690 5690 5690 5690 5691 5692 5692 5692 5692 5693 5693 5694 5695 5694 5694 5695 5696 5698 5699 5699 5698 5699 5698 5698 5698 5699 5699 5699 5700 5700 5701 5701 5701 5701 5701
5679 5680 5681 5682 5682 5683 5684 5684 5685 5685 5685 5685 5685 5686 5687 5687 5687 5688 5688 5689 5689 5690 5690 5690 5692 5694 5694 5694 5693 5693 5693 5694 5694 5694 5693 5694 5695 5695 5696 5696 5696 5695
5673 5674 5675 5676 5677 5677 5678 5678 5678 5679 5680 5680 5680 5680 5681 5681 5681 5682 5681 5682 5684 5684 5684 5684 5685 5687 5688 5688 5687 5687 5687 5688 5689 5689 5689 5688 5689 5689 5689 5690 5690 5690
5666 5667 5668 5669 5670 5671 5672 5672 5672 5672 5673 5674 5675 5675 5675 5675 5675 5675 5675 5675 5677 5677 5677 5677 5679 5681 5682 5682 5681 5681 5682 5683 5684 5684 5684 5683 5682 5682 5682 5683 5684 5684
5660 5661 5661 5662 5663 5664 5665 5665 5666 5665 5666 5667 5668 5669 5669 5669 5669 5670 5669 5669 5670 5670 5670 5671 5674 5675 5675 5675 5676 5676 5677 5678 5678 5678 5678 5677 5676 5676 5676 5677 5677 5677
5654 5655 5656 5656 5657 5658 5658 5659 5659 5659 5659 5660 5660 5661 5662 5663 5663 5664 5664 5664 5664 5664 5665 5667 5669 5669 5669 5670 5670 5670 5671 5672 5671 5672 5672 5671 5670 5670 5670 5671 5671 5671
5647 5648 5649 5650 5651 5651 5652 5652 5652 5653 5653 5653 5653 5654 5655 5656 5657 5657 5657 5658 5658 5658 5661 5663 5662 5662 5664 5664 5664 5664 5665 5665 5665 5666 5666 5664 5664 5664 5664 5665 5665 5665
5640 5641 5642 5643 5643 5644 5644 5645 5645 5646 5646 5646 5646 5647 5647 5648 5649 5650 5650 5651 5651 5652 5655 5656 5655 5656 5657 5658 5658 5659 5659 5659 5659 5659 5659 5658 5657 5657 5657 5658 5658 5658
5632 5633 5634 5635 5636 5637 5637 5637 5638 5639 5639 5639 5640 5640 5640 5639 5640 5642 5643 5644 5644 5646 5648 5649 5647 5648 5650 5651 5652 5652 5652 5652 5652 5652 5652 5651 5651 5651 5651 5651 5651 5651
5626 5626 5627 5628 5629 5629 5630 5630 5631 5631 5632 5632 5632 5632 5632 5631 5632 5633 5635 5637 5637 5638 5640 5641 5640 5641 5643 5643 5644 5645 5645 5645 5645 5644 5645 5645 5644 5644 5644 5644 5644 5644
5619 5619 5620 5621 5621 5622 5622 5623 5623 5624 5624 5624 5625 5625 5624 5624 5624 5626 5629 5631 5631 5631 5632 5633 5634 5635 5636 5636 5637 5637 5637 5637 5637 5637 5638 5638 5637 5637 5637 5636 5636 5636
5611 5612 5613 5614 5615 5615 5616 5616 5616 5616 5617 5617 5617 5618 5618 5617 5618 5621 5623 5624 5624 5624 5625 5627 5628 5629 5629 5629 5630 5630 5630 5630 5629 5630 5630 5631 5630 5630 5629 5629 5628 5627